#timestamp,LO_Frequency,Hit,StdDev 
1599534015.4,286047000.3,N
1599534035.2,286047000.3,N
1599534055.1,286046999.7,N
1599534056.0,286046999.7,N
1599534075.8,286047000.1,N
1599534095.6,286046999.7,N
1599534115.5,286047000.5,N
1599534135.3,286047002.3,N
1599534155.2,286047001.8,N
1599534175.9,286047001.4,N
1599534195.7,286047001.6,N
1599534215.6,286047000.4,N
1599534235.4,286047002.7,N
1599534255.2,286047001.3,N
1599534275.1,286047004.3,Y
1599534276.0,286047004.3,P
1599534295.8,286047003.8,N
1599534315.7,286047001.8,N
1599534335.5,286047001.3,N
1599534355.4,286047002.6,N
1599534375.2,286047002.6,N
1599534395.0,286047002.8,N
1599534395.9,286047002.8,N
1599534415.8,286047001.9,N
1599534435.6,286047002.7,N
1599534455.4,286047002.0,N
1599534475.3,286047001.9,N
1599534495.1,286047002.4,N
1599534515.9,286047002.7,N
1599534535.7,286046999.7,N
1599534555.5,286047001.8,N
1599534575.4,286047001.3,N
1599534595.2,286047001.5,N
1599534615.0,286047002.6,N
1599534615.9,286047002.6,N
1599534635.8,286047001.0,N
1599534655.6,286047000.3,N
1599534675.5,286047001.0,N
1599534695.3,286046999.9,N
1599534715.1,286047000.2,N
1599534735.9,286047002.7,N
1599534755.7,286047001.5,N
1599534775.6,286047004.2,Y
1599534795.4,286047000.0,P
1599534815.2,286047000.5,N
1599534835.1,286047000.1,N
1599534836.0,286047000.1,N
1599534855.8,286047000.2,N
1599534875.6,286046999.9,N
1599534895.5,286047002.6,Y
1599534915.3,286046999.9,P
1599534935.2,286047002.7,P
1599534955.0,286047002.8,N
1599534955.9,286047002.8,N
1599534975.7,286047000.1,N
1599534995.6,286047002.7,N
1599535015.4,286047000.4,N
1599535035.3,286047000.2,N
1599535055.1,286047000.2,N
1599535075.8,286047004.0,Y
1599535095.7,286047000.9,P
1599535115.5,286046998.1,P
1599535135.4,286047002.4,N
1599535155.2,286047002.2,N
1599535175.0,286047002.6,N
1599535175.9,286047002.6,N
1599535195.8,286046999.8,N
1599535215.6,286047001.3,N
1599535235.4,286047004.1,N
1599535255.3,286047002.1,N
1599535275.1,286047002.1,N
1599535295.9,286047000.3,N
1599535315.7,286047000.6,N
1599535335.5,286046998.4,N
1599535355.4,286046999.1,N
1599535375.2,286047000.7,N
1599535395.1,286047002.6,N
1599535396.0,286047002.6,N
1599535415.8,286047002.6,N
1599535435.6,286046999.7,N
1599535455.5,286047002.2,N
1599535475.3,286047000.6,N
1599535495.1,286046998.8,N
1599535515.9,286046998.7,N
1599535535.7,286046998.3,N
1599535555.6,286046999.3,N
1599535575.4,286046997.3,N
1599535595.2,286046998.6,N
1599535615.1,286046998.4,N
1599535616.0,286046998.4,N
1599535635.8,286047001.2,N
1599535655.6,286046999.4,N
1599535675.5,286046999.6,N
1599535695.3,286046999.3,N
1599535715.2,286046998.3,N
1599535735.9,286046996.8,N
1599535755.7,286046999.2,N
1599535775.6,286046999.0,N
1599535795.5,286046999.3,N
1599535815.3,286046997.8,N
1599535835.2,286046999.0,N
1599535855.0,286046999.1,N
1599535855.9,286046999.1,N
1599535875.8,286046997.3,N
1599535895.6,286046996.5,N
1599535915.4,286046999.2,N
1599535935.3,286046999.0,N
1599535955.1,286046999.2,N
1599535975.9,286046999.1,N
1599535995.7,286046999.4,N
1599536015.5,286046999.4,N
1599536035.4,286046999.5,N
1599536055.2,286046997.1,Y
1599536075.0,286046998.8,P
1599536075.9,286046998.8,P
1599536095.8,286046998.8,P
1599536115.6,286046999.5,Y
1599536135.5,286046998.2,P
1599536155.3,286047000.6,N
1599536175.1,286047001.0,N
1599536195.9,286046998.3,N
1599536215.7,286046998.6,N
1599536235.5,286047001.1,N
1599536255.4,286046998.2,N
1599536275.2,286047000.6,N
1599536295.1,286046998.5,N
1599536296.0,286046998.5,N
1599536315.8,286046998.1,N
1599536335.6,286046999.9,N
1599536355.5,286046998.4,N
1599536375.3,286046999.3,N
1599536395.1,286046998.9,N
1599536415.9,286046999.0,N
1599536435.7,286046998.5,N
1599536455.6,286046998.3,N
1599536475.4,286046998.6,N
1599536495.2,286046999.0,N
1599536515.1,286046998.4,N
1599536516.0,286046998.4,N
1599536535.8,286046998.3,N
1599536555.6,286046998.4,N
1599536575.5,286046998.8,N
1599536595.3,286046996.7,Y
1599536615.2,286046998.7,P
1599536635.9,286046999.9,N
1599536655.7,286046998.5,N
1599536675.6,286047001.2,N
1599536695.4,286047000.0,N
1599536715.3,286047000.0,N
1599536735.1,286047002.1,N
1599536736.0,286047002.1,N
1599536755.8,286047001.6,N
1599536775.7,286047000.3,N
1599536795.5,286047000.9,N
1599536815.3,286046999.9,N
1599536835.2,286047000.7,N
1599536855.0,286047000.6,N
1599536855.9,286047000.6,N
1599536875.8,286047000.3,N
1599536895.6,286047000.0,N
1599536915.4,286046999.7,N
1599536935.3,286047002.4,N
1599536955.1,286047002.7,N
1599536975.8,286047001.5,N
1599536995.7,286047000.0,N
1599537015.5,286047002.4,N
1599537035.4,286047002.6,N
1599537055.2,286047000.7,N
1599537075.0,286047000.4,N
1599537075.9,286047000.4,N
1599537095.8,286047002.5,N
1599537115.6,286047001.7,N
1599537135.4,286047002.0,N
1599537155.3,286047001.6,N
1599537175.1,286047001.3,N
1599537195.9,286047002.7,N
1599537215.7,286047003.7,Y
1599537235.5,286047001.7,P
1599537255.4,286047002.3,P
1599537275.2,286047002.4,P
1599537295.1,286047001.9,Y
1599537296.0,286047001.9,P
1599537315.8,286047000.8,P
1599537335.6,286047000.2,N
1599537355.5,286047000.9,N
1599537375.3,286047001.2,N
1599537395.2,286046998.4,N
1599537415.9,286046999.1,N
1599537435.7,286046999.5,N
1599537455.6,286046998.2,N
1599537475.4,286046998.8,N
1599537495.2,286047000.9,N
1599537515.1,286047000.4,N
1599537516.0,286047000.4,N
1599537535.8,286047000.6,N
1599537555.7,286047001.2,N
1599537575.5,286046998.7,N
1599537595.3,286046999.4,N
